TIME,DELAY(SENSOR),PRES,T(CTD),SAL,OXYGEN,RAWTEMP,T(OPTODE),TCPHASE,FLUOR,BETA(BETA700),BETA(BETA412),BETA(BETA440),CDOM,C(CSC),ED(ED411.90),ED(ED443.80),ED(ED489.40),ED(ED554.70),LU(LU412.20),LU(LU443.80),LU(LU489.40),LU(LU555.00),COMP,TILTX,TILTX(TILTY),CHECK
1372693304,5806,495.3599853515625000,17.7145004272460940,36.4898986816406250,224.0361022949218800,164.7882995605468800,17.7102909088134770,31.4068107604980470,50,97,90,79,66,10272,2146957906,2147516150,2147271460,2147454966,2147082660,2146957860,2147653760,2147127762,3257,-1,8,12000
1372693431,5804,483.7000122070312500,17.8411998748779300,36.5098991394043000,225.4058074951172000,160.4698028564453000,17.8406505584716800,31.2784996032714840,50,95,90,80,68,10276,2146956763,2147515602,2147272411,2147453888,2147080667,2146950582,2147653302,2147129764,2854,-1,8,46856
1372693548,5804,472.8200073242187500,17.9668998718261720,36.5334014892578100,227.2169036865234400,156.6006011962890600,17.9574794769287100,31.1347999572753900,50,95,89,81,67,10283,2146955328,2147515931,2147269056,2147456429,2147084361,2146955602,2147650989,2147130843,2502,-2,8,39100
1372693663,5804,461.8200073242187500,17.9988994598388670,36.5383987426757800,227.1486053466797000,155.3618927001953000,17.9948806762695300,31.1214809417724600,50,95,90,81,67,10273,2146956818,2147516169,2147269604,2147453613,2147081316,2146955373,2147649417,2147132507,1920,-1,8,32386
1372693778,5809,450.6300048828125000,18.0165996551513670,36.5330009460449200,228.3556060791015600,154.7590026855468800,18.0130901336669920,31.0529899597167970,50,95,89,80,66,10272,2146957293,2147516470,2147268909,2147455908,2147081206,2146956800,2147648411,2147130907,1760,-2,8,22702
1372693883,5803,440.4299926757812500,18.0314998626709000,36.5200004577636700,231.4577026367187500,154.0912017822265600,18.0332603454589840,30.8905906677246100,50,97,90,80,66,10272,2146956790,2147514706,2147268726,2147452891,2147080237,2146955547,2147650505,2147131748,1236,-1,8,8469
1372693998,5804,429.2799987792969000,18.0606994628906250,36.5215988159179700,233.7756958007812500,152.5381011962890600,18.0801696777343750,30.7567996978759770,50,96,90,79,65,10278,2146957376,2147515821,2147270811,2147450322,2147072045,2146955154,2147649252,2147128539,676,-1,8,63769
1372694113,5806,418.0799865722656000,18.2094001770019530,36.5480995178222660,236.1470031738281200,148.5260009765625000,18.2013702392578120,30.5889701843261720,50,96,90,80,65,10272,2146956233,2147514066,2147266916,2147453248,2147080374,2146955931,2147644571,2147129993,715,-1,8,7348
1372694230,5806,406.5899963378906000,18.2527008056640620,36.5486984252929700,236.6658020019531200,146.9927978515625000,18.2476997375488280,30.5439205169677730,50,94,91,79,64,10275,2146956169,2147516160,2147268982,2147448246,2147084736,2146960850,2147649974,2147130395,356,-1,8,56184
1372694333,5807,396.3699951171875000,18.2621994018554700,36.5433006286621100,241.5928039550781200,146.6631927490234400,18.2576503753662100,30.3072795867919920,50,94,88,79,64,10272,2146955035,2147517531,2147269961,2147450386,2147079689,2146958948,2147646866,2147128329,35,-1,8,11321
1372694448,5805,385.1799926757812500,18.3057994842529300,36.5437011718750000,244.7456054687500000,145.1970977783203000,18.3019599914550780,30.1424598693847660,50,94,88,81,65,10270,2146955730,2147516342,2147268397,2147449846,2147082349,2146957942,2147647890,2147129234,351,-1,8,18009
1372694565,5804,374.0199890136719000,18.3362998962402340,36.5455017089843750,248.1493072509765600,144.1791992187500000,18.3327198028564450,29.9746303558349600,50,95,90,80,64,10273,2146956196,2147515300,2147268379,2147450633,2147071890,2146959012,2147646976,2147129133,181,-1,8,39635
1372694680,5804,363.3299865722656000,18.3684005737304700,36.5466003417968750,250.6398925781250000,143.1441040039062500,18.3640003204345700,29.8494892120361330,50,97,90,81,64,10277,2146954971,2147515666,2147268288,2147450386,2147076041,2146960877,2147649782,2147130285,275,-2,8,22957
1372694809,5804,351.7300109863281000,18.3850994110107420,36.5463981628418000,253.5825042724609400,142.5198974609375000,18.3828697204589840,29.7112407684326170,50,95,89,80,63,10272,2146955328,2147516864,2147265993,2147446628,2147080557,2146960923,2147643145,2147131419,3241,-1,8,29205
1372694936,5803,340.7399902343750000,18.4018993377685550,36.5470008850097660,254.7344970703125000,142.0355987548828000,18.3975105285644530,29.6547603607177730,50,95,89,81,63,10273,2146959817,2147517101,2147271122,2147449499,2147079936,2146954898,2147649600,2147126628,2822,-1,8,54244
1372695075,5802,329.1099853515625000,18.4188995361328120,36.5475997924804700,254.6811981201172000,141.4832000732422000,18.4142093658447270,29.6496696472167970,50,95,89,82,62,10274,2146954907,2147515492,2147268086,2147449362,2147076077,2146959360,2147652434,2147130112,1985,-1,8,18308
1372695204,5804,318.5899963378906000,18.4314002990722660,36.5471992492675800,254.3836975097656200,141.0888977050781200,18.4261302947998050,29.6577091217041000,50,96,90,81,64,10274,2146956873,2147515392,2147268306,2147451849,2147080301,2146958820,2147653220,2147132022,1172,-1,8,25538
1372695343,5807,307.4100036621094000,18.4430007934570300,36.5481986999511700,254.0007934570312500,140.6710968017578000,18.4387607574462900,29.6688499450683600,50,96,90,81,63,10271,2146956589,2147515803,2147268187,2147449490,2147080082,2146963136,2147659648,2147130587,617,-1,8,35278
1372695484,5805,296.3900146484375000,18.4624996185302730,36.5477981567382800,254.0355072021484400,140.0431060791015600,18.4577407836914060,29.6591091156005860,51,97,89,81,64,10268,2146959908,2147517878,2147268635,2147449142,2147073216,2146965933,2147658907,2147132571,3560,-1,8,817
1372695623,5804,286.0000000000000000,18.4941997528076170,36.5471992492675800,254.3370056152343800,139.0005035400390600,18.4892597198486330,29.6324405670166000,52,100,91,81,63,10269,2146958043,2147517238,2147267547,2147450569,2147076882,2146964370,2147657179,2147130688,2282,-1,8,50470
1372695771,5804,274.7099914550781000,18.5217990875244140,36.5455017089843750,254.0614929199218800,138.0310974121093800,18.5185699462890620,29.6317291259765620,54,101,91,81,64,10268,2146959451,2147515053,2147267611,2147446098,2147078043,2146957211,2147659291,2147130029,1495,-1,8,61183
1372695901,5805,262.2300109863281000,18.6161003112792970,36.5625991821289060,248.3652954101562500,133.3121948242187500,18.6612796783447270,29.8223495483398440,52,96,91,80,65,10269,2146956772,2147514852,2147267977,2147447908,2147080265,2146968594,2147667666,2147130816,1057,-1,8,19524
1372696016,5806,250.0500030517578000,18.8337001800537100,36.6049003601074200,228.9635009765625000,127.8699035644531200,18.8259296417236330,30.6633796691894530,51,96,89,80,66,10277,2146959524,2147516169,2147268699,2147447597,2147077586,2146970587,2147671762,2147126564,1044,-1,8,55654
1372696121,5804,238.6499938964843800,18.9044990539550780,36.5980987548828100,226.1210021972656200,125.5345993041992200,18.8966007232666000,30.7737007141113280,52,95,90,81,65,10276,2146955894,2147516452,2147269065,2147445586,2147080658,2146973961,2147677577,2147134637,631,-1,8,53762
1372696224,5806,227.6399993896484400,18.9123992919921880,36.5848007202148440,233.7666931152343800,124.2907028198242200,18.9342498779296880,30.3818798065185550,54,100,90,81,64,10270,2146955017,2147518189,2147268909,2147447186,2147081462,2146986404,2147698560,2147133833,188,-1,8,21506
1372696327,5808,216.7899932861328000,19.0431003570556640,36.5927009582519500,240.2391967773437500,120.0749969482421900,19.0618896484375000,30.0203609466552730,55,100,89,81,66,10269,2146956425,2147515657,2147269485,2147443849,2147078838,2147003108,2147735076,2147137216,850,-1,8,24329
1372696458,5804,205.2100067138672000,19.0790996551513670,36.5852012634277340,242.1988983154297000,119.6298980712890600,19.0753707885742200,29.9238395690917970,58,100,91,81,64,10264,2146957129,2147518610,2147273426,2147447981,2147074916,2147037302,2147786313,2147137938,203,-1,8,42166
1372696561,5810,198.2599945068359400,19.1403999328613280,36.5750999450683600,251.7415924072265600,117.6644973754882800,19.1348896026611330,29.4690704345703120,60,99,91,82,65,10249,2146957522,2147518390,2147272685,2147445723,2147089197,2147057408,2147820525,2147141184,2715,-2,8,544
1372696628,5805,193.8300018310547000,19.2157993316650400,36.5607986450195300,257.6198120117187500,114.9811019897461000,19.2161693572998050,29.1796398162841800,61,101,92,82,64,10246,2146957558,2147518802,2147272393,2147445513,2147085037,2147077778,2147856704,2147145133,2257,-2,8,398
1372696712,5804,189.3699951171875000,19.3101997375488280,36.5595016479492200,268.4635009765625000,112.1550979614257800,19.3017997741699220,28.6916694641113280,60,101,93,82,64,10245,2146958244,2147519314,2147274633,2147447094,2147097472,2147108470,2147901787,2147144137,2207,-1,8,60852
1372696803,5802,185.8600006103515600,19.4797000885009770,36.5872001647949200,265.8913879394531000,107.0983963012695300,19.4550800323486330,28.7324409484863280,68,103,92,84,64,10243,2146956955,2147522112,2147276132,2147444608,2147104960,2147144411,2147960192,2147147446,2854,-1,8,13938
1372696918,5805,182.1699981689453000,19.5681991577148440,36.5993003845214840,255.2189941406250000,103.6400985717773400,19.5599498748779300,29.1371803283691400,77,114,93,84,64,10240,2146955785,2147520667,2147281408,2147443465,2147110829,2147165065,2147992768,2147152073,2959,-2,8,48082
1372697046,5809,177.2599945068359400,19.6471996307373050,36.5998992919921900,252.3253936767578000,100.8781967163086000,19.6437301635742200,29.2271995544433600,71,109,91,83,64,10228,2146956854,2147524278,2147280612,2147441124,2147121664,2147195867,2148031094,2147153865,60,-1,8,28499
1372697125,5805,173.4600067138672000,19.7220001220703120,36.5976982116699200,253.4040069580078000,98.6684570312500000,19.7107791900634770,29.1519393920898440,70,107,92,82,64,10225,2146958189,2147525632,2147282934,2147441161,2147140909,2147241417,2148086454,2147160832,227,-2,8,32565
1372697216,5804,169.3399963378906200,19.7656993865966800,36.5923995971679700,256.5598144531250000,97.1193008422851600,19.7577991485595700,28.9960899353027340,71,105,91,81,65,10233,2146959424,2147525430,2147280384,2147439963,2147153609,2147284672,2148141997,2147160338,2567,-2,9,42618
1372697297,5804,165.7299957275390600,19.7977008819580080,36.5929985046386700,258.6929016113281000,96.0477981567382800,19.7903194427490230,28.8918800354003900,69,104,92,82,64,10232,2146957952,2147526665,2147284992,2147441929,2147183643,2147361398,2148251702,2147167716,1552,-1,9,13160
1372697388,5804,161.4400024414062500,19.9109001159667970,36.5974006652832000,260.9473876953125000,92.4986267089843800,19.8980808258056640,28.7519207000732420,67,104,92,82,63,10233,2146958098,2147534820,2147295680,2147440777,2147226368,2147503506,2148432832,2147184374,1339,-2,8,27272
1372697467,5806,157.7700042724609400,19.9620990753173830,36.6004981994628900,262.2073974609375000,90.1145935058593800,19.9704799652099600,28.6692409515380860,70,103,93,82,62,10230,2146959067,2147535460,2147304210,2147442669,2147282944,2147666157,2148640713,2147199369,1281,-1,9,20661
1372697558,5803,153.8200073242187500,20.1396999359130860,36.6178016662597660,260.5968933105469000,85.1680908203125000,20.1207695007324220,28.6737899780273440,73,104,92,82,64,10231,2146963245,2147540534,2147307803,2147441810,2147340525,2147805805,2148809755,2147212937,1983,-1,8,41139
1372697675,5802,150.1199951171875000,20.1844997406005860,36.6212005615234400,259.8385925292969000,83.4334335327148400,20.1735000610351560,28.6834907531738280,74,105,92,81,64,10227,2146965467,2147548854,2147321929,2147441161,2147442075,2148042112,2149103405,2147237302,2829,-1,9,3674
1372697850,5804,146.4499969482422000,20.2852001190185550,36.6225013732910160,259.7143859863281000,80.0762405395507800,20.2755794525146500,28.6463108062744140,74,105,92,81,64,10225,2146969508,2147553261,2147324937,2147442916,2147538386,2148222665,2149278976,2147249581,2768,-1,8,59757
1372697982,5805,141.4900054931640600,20.3936996459960940,36.6008987426757800,264.2029113769531000,76.0405426025390600,20.3983402252197270,28.4093208312988280,75,107,92,85,63,10215,2146977490,2147568585,2147338112,2147444178,2147715766,2148555876,2149610194,2147277504,2383,-1,8,65356
1372698061,5804,137.2299957275390600,20.5279998779296880,36.5969009399414060,267.7715148925781000,72.0615921020507800,20.5194396972656250,28.2140998840332030,79,111,94,84,63,10205,2146985014,2147580598,2147356196,2147444004,2147952118,2148999981,2150090678,2147318089,2146,-2,9,30696
1372698140,5804,133.4600067138672000,20.6788005828857420,36.5956001281738300,269.1276855468750000,67.2532806396484400,20.6658592224121100,28.0996303558349600,82,112,93,86,62,10194,2146989997,2147586532,2147365888,2147445385,2148107840,2149231140,2150286948,2147333138,2052,-2,9,29923
1372698245,5806,130.0299987792968800,20.7511005401611330,36.5830001831054700,271.0877990722656000,64.7893829345703100,20.7409305572509770,27.9907398223876950,81,113,93,84,61,10198,2146999021,2147601856,2147385728,2147442459,2148376521,2149681115,2150743515,2147369654,2638,-2,9,25513
1372698420,5805,126.5599975585937500,20.9083003997802730,36.5583992004394500,274.8385009765625000,59.5708503723144500,20.8999996185302730,27.7783393859863280,91,113,95,86,61,10182,2147013238,2147628086,2147418578,2147441938,2148837586,2150400804,2151488283,2147435520,320,-1,8,13198
1372698648,5807,121.9800033569336000,21.3861007690429700,36.5606994628906250,270.5880126953125000,44.2291107177734400,21.3683395385742200,27.7557792663574220,102,119,94,86,63,10178,2147027337,2147643565,2147434130,2147443748,2149253092,2150920740,2151938770,2147478345,318,-1,8,31974
1372698763,5803,118.2900009155273400,21.6282005310058600,36.5460014343261700,270.0650024414062500,37.4224700927734400,21.5764808654785160,27.6925601959228500,101,119,93,84,61,10163,2147040210,2147653513,2147443876,2147442194,2149518464,2151247113,2152238710,2147511414,1025,-1,9,24942
1372698884,5805,114.7200012207031200,21.7747993469238280,36.5391998291015600,269.8070983886719000,31.2814407348632800,21.7644500732421880,27.6271095275878900,95,118,99,86,62,10176,2147059236,2147683593,2147475556,2147442614,2150139172,2152127945,2153071881,2147592493,1361,-2,9,22581
1372698999,5803,110.9700012207031200,21.9305992126464840,36.5320014953613300,268.5284118652344000,26.3542194366455080,21.9153995513916000,27.6173305511474600,101,118,94,83,63,10173,2147067510,2147688576,2147475026,2147440694,2150418038,2152343634,2153138706,2147599917,1486,-2,9,58851
1372699167,5807,106.6900024414062500,22.3680992126464840,36.5233993530273440,269.3414001464844000,12.3102798461914060,22.3463401794433600,27.4129199981689450,95,116,95,87,60,10164,2147064347,2147678500,2147454235,2147437348,2150217883,2151744484,2152323785,2147539446,708,-2,9,10509
1372699294,5804,103.1900024414062500,22.6312999725341800,36.5102005004882800,272.8445129394531000,4.1835131645202640,22.5962009429931640,27.1767997741699220,92,119,94,87,60,10155,2147186368,2147847753,2147654710,2147446290,2153627410,2156791195,2157292196,2147984475,3499,-2,9,10747
1372699510,5805,99.1200027465820300,22.8605995178222660,36.4919013977050800,273.2553100585937500,-3.5744459629058840,22.8350601196289060,27.0667800903320300,87,122,95,86,61,10151,2147240923,2147917421,2147708114,2147449051,2155249654,2158726802,2158850395,2148118134,1618,-1,8,20089
1372699577,5803,97.2300033569336000,22.9036998748779300,36.4875984191894500,278.5599060058594000,-5.2836298942565920,22.8877296447753900,26.8434391021728500,86,120,95,87,59,10143,2147273206,2147961161,2147749101,2147448896,2156249216,2159989485,2159882770,2148208429,2010,-1,9,62437
1372699656,5804,95.0400009155273400,23.0182991027832030,36.4751014709472660,274.1268920898437500,-10.3154897689819340,23.0429000854492200,26.9515800476074220,84,123,96,88,60,10138,2147238601,2147901915,2147670793,2147443620,2155352283,2158391734,2158065069,2148045275,2321,-2,9,59782
1372699735,5804,93.6600036621093800,23.3840007781982420,36.4346008300781250,274.5365905761719000,-20.1901893615722660,23.3478507995605470,26.8166408538818360,82,121,92,84,58,10155,2147368137,2148082322,2147872987,2147456694,2159132013,2163780059,2163195620,2148490496,2315,-2,9,32921
1372699880,5806,91.3899993896484400,23.4769992828369140,36.4305992126464840,282.7554016113281000,-24.2296199798584000,23.4727592468261720,26.4589996337890620,82,119,95,86,59,10145,2147442422,2148177581,2147969097,2147460416,2161133092,2166273746,2165280064,2148669330,1664,-2,9,979
1372699971,5806,89.5199966430664000,23.6937007904052730,36.3992004394531250,283.5181884765625000,-30.3515605926513670,23.6622791290283200,26.3578090667724600,80,117,95,86,60,10158,2147491739,2148237586,2148019821,2147461229,2162690797,2168247917,2166946907,2148804608,1827,-2,9,16194
1372700128,5803,87.2200012207031200,23.8337993621826170,36.3834991455078100,279.1083984375000000,-35.7363891601562500,23.8291797637939450,26.4569492340087900,77,117,95,86,58,10148,2147561133,2148329014,2148133275,2147467913,2164613312,2170569353,2168820662,2148965357,1023,-2,9,19717
1372700207,5807,85.4899978637695300,24.0147991180419920,36.3661003112793000,280.1552124023437500,-41.0013389587402340,23.9925498962402340,26.3550300598144530,75,121,102,89,59,10152,2147647908,2148437440,2148229988,2147472850,2167200731,2173802889,2171462628,2149185042,307,-1,9,44739
1372700370,5805,83.5899963378906200,24.1417999267578120,36.3600006103515600,304.5653991699219000,-45.2842788696289060,24.1255893707275400,25.4397697448730470,76,116,91,84,58,10161,2147701650,2148491867,2148276406,2147470957,2168961673,2175773586,2172808923,2149297051,388,-1,9,40595
1372700466,5807,80.7799987792968800,24.2926006317138670,36.3572006225585940,321.0177917480469000,-51.4991607666015600,24.3188591003417970,24.8287200927734380,75,115,93,85,60,10161,2147814354,2148635465,2148431314,2147481270,2172603264,2180217133,2176521371,2149652681,842,-1,9,31323
1372700521,5804,78.4700012207031200,24.4785995483398440,36.3908996582031250,295.2174072265625000,-56.1105918884277340,24.4624404907226560,25.6335391998291000,77,113,93,84,61,10155,2147876416,2148722422,2148508470,2147486345,2174977627,2183088082,2178920704,2149896000,1248,-2,9,32652
1372700576,5804,76.6500015258789000,24.6168994903564450,36.4068984985351560,285.5752868652344000,-60.5811805725097660,24.6017799377441400,25.9234199523925780,76,115,93,84,60,10162,2147926244,2148784502,2148568713,2147494253,2176809984,2185335378,2180771858,2150085138,1359,-2,9,39139
1372700631,5805,75.3899993896484400,24.6464996337890620,36.3913002014160160,280.8357849121094000,-61.8514404296875000,24.6413993835449220,26.0817203521728500,74,112,94,85,62,10162,2147966089,2148840749,2148641270,2147498130,2178148672,2187079232,2182224374,2150228608,1172,-2,9,14321
1372700763,5806,72.6600036621093800,24.7143001556396500,36.2854003906250000,280.8923950195312500,-64.3521194458007800,24.7194194793701170,26.0499305725097660,70,118,93,85,59,10156,2147718016,2148477805,2148223826,2147472265,2169918518,2175504164,2171315611,2149280420,577,-2,9,48529
1372700818,5803,70.8899993896484400,25.2541999816894530,36.2383995056152340,279.9724121093750000,-79.9121932983398400,25.2059803009033200,25.8995990753173830,67,118,93,86,61,10153,2147672009,2148397083,2148116498,2147467629,2167881444,2172471707,2168427264,2149034084,641,-2,9,42537
1372700945,5805,69.8000030517578100,25.3400993347167970,36.2425994873046900,315.5910034179687500,-83.7675170898437500,25.3268203735351560,24.6291809082031250,69,119,93,85,58,10153,2148451273,2149404123,2149150692,2147531081,2191125504,2202765348,2194926299,2151519862,321,-2,9,36677
1372701102,5805,67.1800003051757800,25.7273006439209000,36.2117996215820300,294.9931945800781000,-96.2584609985351600,25.7191390991210940,25.1709403991699220,69,117,92,90,60,10149,2148487652,2149402825,2149110966,2147532864,2191253531,2201748516,2193172918,2151441600,197,-2,9,55335
1372701438,5809,65.4100036621093800,26.0466003417968750,36.1862983703613300,323.4078979492187500,-106.2154998779296900,26.0327796936035160,24.1238594055175780,67,115,95,86,58,10150,2148539821,2149421220,2149050971,2147521316,2193459428,2203001078,2192992009,2151436242,60,-2,9,42103
1372701553,5803,63.6199989318847660,26.2303009033203120,36.1786003112793000,311.4135131835937500,-112.0975036621093800,26.2184505462646500,24.4373302459716800,67,115,91,86,57,10148,2148715053,2149617398,2149184246,2147527561,2198378185,2208449938,2196949129,2151858422,3235,-2,9,48118
1372701709,5802,61.1699981689453100,26.4263992309570300,36.1656990051269500,328.6134948730469000,-118.3964996337890600,26.4176006317138670,23.8243103027343750,65,111,92,87,59,10157,2148293485,2149061952,2148624960,2147487268,2183827922,2189410742,2180269037,2150198336,3010,-2,9,13643
1372701800,5802,59.4900016784668000,26.5585994720459000,36.1497001647949200,323.6516113281250000,-122.7562026977539000,26.5556392669677730,23.9272003173828120,64,111,94,85,56,10160,2149051547,2149955328,2149420251,2147543707,2206708214,2216591579,2201806134,2152430994,2951,-2,9,47257
1372701980,5806,57.0499992370605500,26.6401996612548830,36.1344985961914060,315.0585021972656000,-125.6178970336914000,26.6463394165039060,24.1646900177001950,64,110,92,84,58,10167,2149562898,2150529179,2149886500,2147580498,2223754349,2235807853,2216278016,2154073344,2197,-2,9,47093
1372702047,5806,54.5699996948242200,26.6522998809814450,36.1316986083984400,292.1642150878906000,-126.0317993164062500,26.6594696044921880,24.9220905303955080,61,110,92,86,59,10171,2149765513,2150749293,2150061540,2147604781,2230259730,2242007021,2219898605,2154620388,1840,-2,9,22189
1372702189,5808,49.2500000000000000,26.6882991790771500,36.1245994567871100,285.4251098632812500,-127.2064971923828100,26.6967201232910160,25.1457099914550780,60,110,94,85,60,10148,2150342381,2151297124,2150480073,2147665700,2246944804,2258558454,2230682605,2156207433,1645,-2,9,64096
1372702222,5802,47.9099998474121100,26.6972999572753900,36.1237983703613300,288.1600036621094000,-127.4484024047851600,26.7043991088867200,25.0457706451416000,59,110,91,85,56,10143,2149720054,2150585856,2149844836,2147618989,2227965549,2235716854,2211848054,2153960539,1435,-2,9,49583
1372702284,5807,45.3800010681152340,26.7024993896484380,36.1240005493164060,288.0889892578125000,-127.7470016479492200,26.7138690948486330,25.0448703765869140,59,108,91,83,56,10153,2151064292,2152101138,2151230363,2147835620,2269692150,2282218386,2246750189,2158586148,1033,-1,9,43547
1372702317,5808,43.6599998474121100,26.7203998565673830,36.1225013732910160,285.3243103027344000,-128.4223022460937500,26.7353000640869140,25.1351299285888670,59,113,92,87,58,10149,2151312612,2152350098,2151413540,2147873106,2277228306,2289316891,2251067739,2159162797,1004,-2,10,19178
1372702362,5805,41.2099990844726560,26.7730007171630860,36.1016006469726560,285.1393127441406000,-129.8809967041015600,26.7815895080566400,25.1245307922363280,58,108,90,84,56,10149,2151942628,2153004141,2151963785,2147976877,2298467629,2311774838,2267272978,2161817618,1150,-1,9,11864
1372702395,5803,39.5000000000000000,26.8019008636474600,36.0941009521484400,288.5202941894531000,-130.8890991210937500,26.8136005401611330,24.9929504394531250,58,110,92,85,56,10151,2152134756,2153180617,2152051446,2147998052,2303481700,2315983030,2269452315,2162407314,1213,-1,9,33609
1372702428,5801,37.6500015258789060,26.8302001953125000,36.0891990661621100,290.3485107421875000,-131.8390045166015600,26.8437690734863280,24.9178104400634770,57,109,92,85,58,10138,2152554441,2153603410,2152425819,2148075474,2318692324,2331724873,2280412992,2164239506,1227,-2,9,39610
1372702461,5803,35.7700004577636700,26.8535995483398440,36.0876007080078100,291.7944946289062500,-132.5202941894531200,26.8654098510742200,24.8594093322753900,57,114,93,85,60,10148,2153019730,2154092269,2152814061,2148167424,2333746203,2346886601,2291248594,2166314002,1269,-1,8,33698